URMM

Mineralnye Vody Airport

Airport
ICAO code
URMM
IATA Code
MRV
Summary
ICAO Region
EUR
ICAO Territory
Location

Stavropol Krai, North Caucasus

Serving
Mineralnye Vody
Elevation
1053 ft
Coordinates
44° 13' 30" N , 43° 4' 55" E
KCC
Metar
URMM 241030Z 11009MPS 9999 OVC016 02/M02 Q1031 R11/190160 NOSIG RMK MT OBSC QFE745/0993

Mineralnye Vody Airport is an airport in Stavropol Krai, Russia

Climatology

Humid Continental climate (Köppen climate classification Dfa)

Runways

Designator Length Width Surface Rops
12/30 3900 60 CON Yes/Yes

Airport map

Aerial View

SKYbrary Partners:

Safety knowledge contributed by: